Location: ??? ?????
(30.6482°N, 60.5850°E)
Time: 05:05:37
(UTC+00:00)

SL-08 RB Rocket - Pass Details

Date: 09 April 2020
Orbit: 646 x 685 km, 97.8° (Epoch: 05 June)

Event Time Altitude Azimuth Distance (km) Brightness Sun altitude
Exits shadow 15:40:01 30° 126° (SE) 1,174 4.4 -17.0°
Maximum altitude 15:41:45 45° 75° (ENE) 904 4.0 -17.4°
Drops below altitude 10° 15:46:08 10° 2° (N) 2,103 6.5 -18.3°
Sets 15:48:27 0° 357° (N) 3,026 7.4 -18.7°
